When you browse on this site, cookies collect data to enhance your experience and personalize the content and advertising you see.
Visit our Privacy Policy to learn more. By continuing to use the site, you agree to this use of cookies and data.
  • In Schweiz
  • Länderverzeichnis
  • Für 7 Tage
  • Wassertemperatur
  • Wetterkarte
  • Widgets
  • user-avatar
    Anmelden

    Stündliche Wetter Tysaahtelek

    Heute, 18 Februar, Dienstag

    Zeit Temperatur Niederschläge Wind Luftdruck Luftfeuchtigkeit
    00:00 +6°C° 0 mm 1 m/S 755 mmHg 76%
    01:00 +7°C° 0 mm 1 m/S 755 mmHg 76%
    02:00 +7°C° 0 mm 1 m/S 755 mmHg 77%
    03:00 +7°C° 0 mm 1 m/S 755 mmHg 77%
    04:00 +7°C° 0 mm 1 m/S 755 mmHg 78%
    05:00 +5°C° 0.3 mm 2 m/S 755 mmHg 80%
    06:00 +5°C° 0.3 mm 2 m/S 755 mmHg 83%
    07:00 +4°C° 0.3 mm 3 m/S 756 mmHg 86%
    08:00 +6°C° 0.3 mm 2 m/S 756 mmHg 86%
    09:00 +7°C° 0.3 mm 1 m/S 756 mmHg 85%
    10:00 +8°C° 0.3 mm 1 m/S 756 mmHg 85%
    11:00 +9°C° 0 mm 1 m/S 757 mmHg 82%
    12:00 +9°C° 0 mm 2 m/S 757 mmHg 78%
    13:00 +10°C° 0 mm 2 m/S 757 mmHg 75%
    14:00 +10°C° 0.2 mm 2 m/S 757 mmHg 77%
    15:00 +10°C° 0.2 mm 1 m/S 757 mmHg 80%
    16:00 +10°C° 0.2 mm 1 m/S 757 mmHg 82%
    17:00 +9°C° 0.2 mm 1 m/S 757 mmHg 82%
    18:00 +9°C° 0.2 mm 1 m/S 758 mmHg 83%
    19:00 +8°C° 0.2 mm 1 m/S 758 mmHg 83%
    20:00 +8°C° 0 mm 1 m/S 758 mmHg 83%
    21:00 +7°C° 0 mm 1 m/S 758 mmHg 84%
    22:00 +7°C° 0 mm 1 m/S 758 mmHg 84%
    23:00 +6°C° 0 mm 1 m/S 758 mmHg 84%

    Morgen, 19 Februar, Mittwoch

    Zeit Temperatur Niederschläge Wind Luftdruck Luftfeuchtigkeit
    00:00 +6°C° 0 mm 1 m/S 758 mmHg 84%
    01:00 +6°C° 0 mm 1 m/S 758 mmHg 84%
    02:00 +5°C° 0 mm 1 m/S 758 mmHg 84%
    03:00 +5°C° 0 mm 1 m/S 758 mmHg 84%
    04:00 +5°C° 0 mm 1 m/S 757 mmHg 85%
    05:00 +4°C° 0 mm 1 m/S 757 mmHg 86%
    06:00 +4°C° 0 mm 1 m/S 757 mmHg 87%
    07:00 +4°C° 0 mm 1 m/S 757 mmHg 89%
    08:00 +4°C° 0 mm 2 m/S 756 mmHg 87%
    09:00 +5°C° 0 mm 2 m/S 756 mmHg 85%
    10:00 +6°C° 0 mm 2 m/S 756 mmHg 83%
    11:00 +6°C° 0 mm 2 m/S 755 mmHg 81%
    12:00 +6°C° 0 mm 2 m/S 755 mmHg 78%
    13:00 +7°C° 0 mm 2 m/S 754 mmHg 75%
    14:00 +7°C° 0 mm 2 m/S 754 mmHg 74%
    15:00 +8°C° 0 mm 1 m/S 754 mmHg 73%
    16:00 +8°C° 0 mm 1 m/S 753 mmHg 73%
    17:00 +7°C° 0 mm 1 m/S 753 mmHg 75%
    18:00 +6°C° 0 mm 1 m/S 753 mmHg 77%
    19:00 +6°C° 0 mm 1 m/S 754 mmHg 79%
    20:00 +5°C° 0 mm 1 m/S 753 mmHg 80%
    21:00 +5°C° 0 mm 1 m/S 753 mmHg 81%
    22:00 +5°C° 0 mm 1 m/S 753 mmHg 82%
    23:00 +5°C° 0 mm 1 m/S 753 mmHg 84%

    übermorgen, 20 Februar, Donnerstag

    Zeit Temperatur Niederschläge Wind Luftdruck Luftfeuchtigkeit
    00:00 +5°C° 0 mm 1 m/S 754 mmHg 85%
    01:00 +5°C° 0 mm 1 m/S 754 mmHg 87%
    02:00 +4°C° 0.4 mm 2 m/S 754 mmHg 88%
    03:00 +3°C° 0.4 mm 3 m/S 754 mmHg 89%
    04:00 +1°C° 0.4 mm 4 m/S 754 mmHg 89%
    05:00 +2°C° 0.1 mm 3 m/S 754 mmHg 88%
    06:00 +2°C° 0.1 mm 3 m/S 755 mmHg 88%
    07:00 +2°C° 0.1 mm 3 m/S 755 mmHg 87%
    08:00 +3°C° 0 mm 4 m/S 755 mmHg 80%
    09:00 +4°C° 0 mm 4 m/S 756 mmHg 73%
    10:00 +5°C° 0 mm 4 m/S 756 mmHg 66%
    11:00 +5°C° 0 mm 4 m/S 756 mmHg 64%
    12:00 +6°C° 0 mm 4 m/S 756 mmHg 62%
    13:00 +6°C° 0 mm 4 m/S 756 mmHg 59%
    14:00 +6°C° 0 mm 4 m/S 756 mmHg 61%
    15:00 +6°C° 0 mm 4 m/S 756 mmHg 63%
    16:00 +5°C° 0 mm 3 m/S 756 mmHg 64%
    17:00 +4°C° 0 mm 3 m/S 757 mmHg 69%
    18:00 +3°C° 0 mm 3 m/S 757 mmHg 73%
    19:00 +3°C° 0 mm 2 m/S 758 mmHg 77%
    20:00 +3°C° 0 mm 2 m/S 758 mmHg 78%
    21:00 +3°C° 0 mm 1 m/S 758 mmHg 79%
    22:00 +3°C° 0 mm 1 m/S 758 mmHg 79%
    23:00 +3°C° 0 mm 1 m/S 758 mmHg 79%

    21 Februar, Freitag

    Zeit Temperatur Niederschläge Wind Luftdruck Luftfeuchtigkeit
    00:00 +3°C° 0 mm 1 m/S 758 mmHg 80%
    01:00 +1°C° 0 mm 0 m/S 758 mmHg 80%
    02:00 +2°C° 0 mm 1 m/S 758 mmHg 80%
    03:00 +2°C° 0 mm 1 m/S 758 mmHg 81%
    04:00 +1°C° 0 mm 2 m/S 757 mmHg 82%
    05:00 +1°C° 0 mm 2 m/S 757 mmHg 84%
    06:00 +1°C° 0 mm 2 m/S 757 mmHg 85%
    07:00 +1°C° 0 mm 2 m/S 757 mmHg 87%
    14:00 +5°C° 0.5 mm 5 m/S 756 mmHg 72%
    15:00 +4°C° 0.5 mm 4 m/S 756 mmHg 79%
    16:00 +4°C° 0.5 mm 4 m/S 756 mmHg 85%
    17:00 +3°C° 0.2 mm 4 m/S 757 mmHg 82%
    18:00 +3°C° 0.2 mm 4 m/S 758 mmHg 80%
    19:00 +2°C° 0.2 mm 5 m/S 759 mmHg 77%
    20:00 +1°C° 0 mm 4 m/S 759 mmHg 78%
    21:00 +1°C° 0 mm 3 m/S 760 mmHg 78%
    22:00 +1°C° 0 mm 3 m/S 760 mmHg 79%
    23:00 +2°C° 0 mm 2 m/S 761 mmHg 81%

    22 Februar, Samstag

    Zeit Temperatur Niederschläge Wind Luftdruck Luftfeuchtigkeit
    00:00 +1°C° 0 mm 2 m/S 761 mmHg 83%
    01:00 +1°C° 0 mm 2 m/S 761 mmHg 85%
    02:00 +1°C° 0 mm 2 m/S 762 mmHg 86%
    03:00 +1°C° 0 mm 2 m/S 762 mmHg 87%
    04:00 -1°C° 0 mm 2 m/S 762 mmHg 89%
    05:00 -1°C° 0 mm 2 m/S 762 mmHg 89%
    06:00 +2°C° 0 mm 1 m/S 762 mmHg 89%
    07:00 +2°C° 0 mm 1 m/S 763 mmHg 89%
    08:00 +3°C° 0 mm 1 m/S 763 mmHg 83%
    09:00 +4°C° 0 mm 1 m/S 763 mmHg 77%
    10:00 +6°C° 0 mm 1 m/S 763 mmHg 71%
    11:00 +6°C° 0 mm 1 m/S 762 mmHg 68%
    12:00 +6°C° 0 mm 2 m/S 762 mmHg 65%
    13:00 +7°C° 0 mm 3 m/S 762 mmHg 62%
    14:00 +6°C° 0 mm 2 m/S 762 mmHg 63%
    15:00 +6°C° 0 mm 2 m/S 761 mmHg 65%
    16:00 +6°C° 0 mm 2 m/S 761 mmHg 67%
    17:00 +5°C° 0 mm 2 m/S 761 mmHg 70%
    18:00 +5°C° 0 mm 2 m/S 761 mmHg 74%
    19:00 +3°C° 0 mm 3 m/S 761 mmHg 77%
    20:00 +3°C° 0 mm 3 m/S 761 mmHg 77%
    21:00 +3°C° 0 mm 3 m/S 761 mmHg 78%
    22:00 +3°C° 0 mm 3 m/S 761 mmHg 78%
    23:00 +3°C° 0 mm 4 m/S 760 mmHg 79%

    23 Februar, Sonntag

    Zeit Temperatur Niederschläge Wind Luftdruck Luftfeuchtigkeit
    00:00 +3°C° 0 mm 4 m/S 760 mmHg 79%
    01:00 +3°C° 0 mm 4 m/S 759 mmHg 79%
    02:00 +3°C° 0.2 mm 4 m/S 759 mmHg 81%
    03:00 +3°C° 0.2 mm 4 m/S 759 mmHg 83%
    04:00 +3°C° 0.2 mm 4 m/S 758 mmHg 85%
    05:00 +3°C° 0.3 mm 4 m/S 758 mmHg 85%
    06:00 +3°C° 0.3 mm 4 m/S 758 mmHg 86%
    07:00 +3°C° 0.3 mm 4 m/S 757 mmHg 86%
    08:00 +3°C° 0.1 mm 4 m/S 757 mmHg 83%
    09:00 +4°C° 0.1 mm 4 m/S 757 mmHg 81%
    10:00 +4°C° 0.1 mm 4 m/S 757 mmHg 78%
    11:00 +6°C° 0 mm 4 m/S 756 mmHg 77%
    12:00 +7°C° 0 mm 4 m/S 756 mmHg 76%
    13:00 +8°C° 0 mm 4 m/S 755 mmHg 74%
    14:00 +8°C° 0.1 mm 4 m/S 755 mmHg 76%
    15:00 +9°C° 0.1 mm 3 m/S 755 mmHg 78%
    16:00 +8°C° 0.1 mm 3 m/S 754 mmHg 80%
    17:00 +8°C° 0.3 mm 3 m/S 755 mmHg 82%
    18:00 +8°C° 0.3 mm 3 m/S 755 mmHg 84%
    19:00 +8°C° 0.3 mm 2 m/S 755 mmHg 86%
    20:00 +8°C° 0.2 mm 2 m/S 755 mmHg 88%
    21:00 +8°C° 0.2 mm 2 m/S 755 mmHg 89%
    22:00 +9°C° 0.2 mm 1 m/S 755 mmHg 91%
    23:00 +9°C° 0.2 mm 1 m/S 755 mmHg 91%
    Mehr zeigen